Вернуться в каталог

APSTAR 6E

АктивенСвязьGEO
NORAD 55239·PAYLOAD·🇨🇳 China

Запущен Jan 12, 2023 с Xichang Satellite Launch Center

Loading…

TLE

СвежийSource: Space-Track

Эпоха: Sep 14, 2026, 12:43 UTC

1 55239U 23005A   26257.53041538 -.00000325  00000-0  00000-0 0  9996
2 55239   0.0468 247.8877 0003750 318.4071 112.1878  1.00272185 19594

Отслеживайте APSTAR 6E в реальном времени с AllMySat

Download on the App Store